Location: Melbourne
(37.8141°S, 144.9633°E)
Time: 12:55:59
(UTC+11:00)

Hubble Space Telescope - Pass Details

Date: 11 May 2015
Orbit: 536 x 540 km, 28.5° (Epoch: 20 October)

Event Time Altitude Azimuth Distance (km) Brightness Sun altitude
Exits shadow 05:14:27 21° 353° (N) 1,249 2.6 -22.8°
Maximum altitude 05:15:01 22° 5° (N) 1,227 2.7 -22.7°
Drops below altitude 10° 05:18:14 10° 55° (NE) 1,803 4.3 -22.1°
Sets 05:20:54 0° 71° (ENE) 2,697 5.7 -21.6°
